Location: Huesca
(42.1318°N, 0.4078°W)
Time: 09:33:34
(UTC+02:00)

TIGRISAT - Pass Details

Date: 30 April 2024
Orbit: 594 x 672 km, 97.7° (Epoch: 21 May)

Event Time Altitude Azimuth Distance (km) Brightness Sun altitude
Rises 04:28:26 0° 112° (ESE) 2,892 ? -23.4°
Reaches altitude 10° 04:32:35 10° 72° (ENE) 1,971 ? -22.9°
Maximum altitude 04:33:21 10° 61° (ENE) 1,941 ? -22.8°
Drops below altitude 10° 04:34:06 10° 51° (NE) 1,966 ? -22.7°
Sets 04:38:13 0° 11° (NNE) 2,860 ? -22.2°
